Time,TemperatureF,DewpointF,PressureIn,WindDirection,WindDirectionDegrees,WindSpeedMPH,WindSpeedGustMPH,Humidity,HourlyPrecipIn,Conditions,Clouds,dailyrainin,SoftwareType,DateUTC
2013-06-25 00:01:00,66.0,15.0,29.52,West,262,0.0,-999.0,14,-99.99,,,-99.99,,2013-06-25 06:01:00,
2013-06-25 00:11:00,66.0,15.0,29.52,West,262,0.0,-999.0,14,-99.99,,,-99.99,,2013-06-25 06:11:00,
2013-06-25 00:21:00,63.0,18.0,29.53,West,262,0.0,-999.0,17,-99.99,,,-99.99,,2013-06-25 06:21:00,
2013-06-25 00:33:00,62.0,17.0,29.54,West,262,0.0,-999.0,17,-99.99,,,-99.99,,2013-06-25 06:33:00,
2013-06-25 00:43:00,62.0,17.0,29.54,West,262,0.0,-999.0,17,-99.99,,,-99.99,,2013-06-25 06:43:00,
2013-06-25 00:52:00,62.0,14.0,29.55,West,262,0.0,-999.0,15,-99.99,,,-99.99,,2013-06-25 06:52:00,
2013-06-25 01:02:00,59.0,14.0,29.54,West,277,2.0,-999.0,17,-99.99,,,-99.99,,2013-06-25 07:02:00,
2013-06-25 01:22:00,58.0,15.0,29.55,West,281,0.0,-999.0,18,-99.99,,,-99.99,,2013-06-25 07:22:00,
2013-06-25 01:33:00,59.0,13.0,29.57,West,281,0.0,-999.0,16,-99.99,,,-99.99,,2013-06-25 07:33:00,
2013-06-25 01:43:00,59.0,13.0,29.57,West,281,0.0,-999.0,16,-99.99,,,-99.99,,2013-06-25 07:43:00,
2013-06-25 01:52:00,61.0,11.0,29.56,West,276,0.0,-999.0,14,-99.99,,,-99.99,,2013-06-25 07:52:00,
2013-06-25 02:01:00,62.0,12.0,29.56,West,275,0.0,-999.0,14,-99.99,,,-99.99,,2013-06-25 08:01:00,
2013-06-25 02:11:00,62.0,12.0,29.56,West,275,0.0,-999.0,14,-99.99,,,-99.99,,2013-06-25 08:11:00,
2013-06-25 02:21:00,60.0,12.0,29.55,West,275,0.0,-999.0,15,-99.99,,,-99.99,,2013-06-25 08:21:00,
2013-06-25 02:34:00,59.0,13.0,29.56,West,275,0.0,-999.0,16,-99.99,,,-99.99,,2013-06-25 08:34:00,
2013-06-25 02:43:00,59.0,13.0,29.56,West,275,0.0,-999.0,16,-99.99,,,-99.99,,2013-06-25 08:43:00,
2013-06-25 02:53:00,59.0,11.0,29.57,West,275,0.0,-999.0,15,-99.99,,,-99.99,,2013-06-25 08:53:00,
2013-06-25 03:02:00,60.0,12.0,29.58,West,275,0.0,-999.0,15,-99.99,,,-99.99,,2013-06-25 09:02:00,
2013-06-25 03:12:00,60.0,12.0,29.58,West,275,0.0,-999.0,15,-99.99,,,-99.99,,2013-06-25 09:12:00,
2013-06-25 03:22:00,59.0,13.0,29.58,West,275,0.0,-999.0,16,-99.99,,,-99.99,,2013-06-25 09:22:00,
2013-06-25 03:33:00,58.0,13.0,29.58,West,275,0.0,-999.0,17,-99.99,,,-99.99,,2013-06-25 09:33:00,
2013-06-25 03:43:00,58.0,13.0,29.58,West,275,0.0,-999.0,17,-99.99,,,-99.99,,2013-06-25 09:43:00,
2013-06-25 03:53:00,58.0,13.0,29.59,West,275,0.0,-999.0,17,-99.99,,,-99.99,,2013-06-25 09:53:00,
2013-06-25 04:01:00,55.0,15.0,29.57,West,275,1.0,-999.0,20,-99.99,,,-99.99,,2013-06-25 10:01:00,
2013-06-25 04:11:00,55.0,15.0,29.57,West,275,1.0,-999.0,20,-99.99,,,-99.99,,2013-06-25 10:11:00,
2013-06-25 04:21:00,53.0,14.0,29.60,NW,319,4.0,-999.0,21,-99.99,,,-99.99,,2013-06-25 10:21:00,
2013-06-25 04:33:00,50.0,15.0,29.61,NW,319,2.0,-999.0,24,-99.99,,,-99.99,,2013-06-25 10:33:00,
2013-06-25 04:42:00,50.0,15.0,29.61,NW,319,2.0,-999.0,24,-99.99,,,-99.99,,2013-06-25 10:42:00,
2013-06-25 04:52:00,49.0,16.0,29.62,NW,319,1.0,-999.0,27,-99.99,,,-99.99,,2013-06-25 10:52:00,
2013-06-25 05:22:00,48.0,16.0,29.66,North,350,3.0,-999.0,27,-99.99,,,-99.99,,2013-06-25 11:22:00,
2013-06-25 05:34:00,47.0,14.0,29.66,North,351,5.0,-999.0,26,-99.99,,,-99.99,,2013-06-25 11:34:00,
2013-06-25 06:01:00,48.0,15.0,29.68,North,351,2.0,-999.0,26,-99.99,,,-99.99,,2013-06-25 12:01:00,
2013-06-25 06:11:00,48.0,15.0,29.68,North,351,2.0,-999.0,26,-99.99,,,-99.99,,2013-06-25 12:11:00,
2013-06-25 06:22:00,47.0,16.0,29.68,North,351,2.0,-999.0,29,-99.99,,,-99.99,,2013-06-25 12:22:00,
2013-06-25 06:33:00,46.0,16.0,29.69,North,351,3.0,-999.0,29,-99.99,,,-99.99,,2013-06-25 12:33:00,
2013-06-25 06:43:00,46.0,16.0,29.69,North,351,3.0,-999.0,29,-99.99,,,-99.99,,2013-06-25 12:43:00,
2013-06-25 06:55:00,47.0,17.0,29.70,North,351,0.0,-999.0,30,-99.99,,,-99.99,,2013-06-25 12:55:00,
2013-06-25 07:01:00,49.0,16.0,29.69,North,351,3.0,-999.0,27,-99.99,,,-99.99,,2013-06-25 13:01:00,
2013-06-25 07:11:00,49.0,16.0,29.69,North,351,3.0,-999.0,27,-99.99,,,-99.99,,2013-06-25 13:11:00,
2013-06-25 07:22:00,52.0,16.0,29.68,North,354,3.0,-999.0,24,-99.99,,,-99.99,,2013-06-25 13:22:00,
2013-06-25 07:34:00,53.0,20.0,29.68,North,354,3.0,-999.0,27,-99.99,,,-99.99,,2013-06-25 13:34:00,
2013-06-25 07:42:00,53.0,20.0,29.68,North,354,3.0,-999.0,27,-99.99,,,-99.99,,2013-06-25 13:42:00,
2013-06-25 07:53:00,57.0,16.0,29.67,NNE,30,3.0,-999.0,20,-99.99,,,-99.99,,2013-06-25 13:53:00,
2013-06-25 08:01:00,59.0,17.0,29.66,North,1,3.0,-999.0,19,-99.99,,,-99.99,,2013-06-25 14:01:00,
2013-06-25 08:11:00,59.0,17.0,29.66,North,1,3.0,-999.0,19,-99.99,,,-99.99,,2013-06-25 14:11:00,
2013-06-25 08:22:00,63.0,26.0,29.64,North,1,0.0,-999.0,24,-99.99,,,-99.99,,2013-06-25 14:22:00,
2013-06-25 08:34:00,66.0,28.0,29.63,North,1,1.0,-999.0,24,-99.99,,,-99.99,,2013-06-25 14:34:00,
2013-06-25 08:43:00,66.0,28.0,29.63,North,1,1.0,-999.0,24,-99.99,,,-99.99,,2013-06-25 14:43:00,
2013-06-25 08:53:00,68.0,28.0,29.65,North,1,0.0,-999.0,22,-99.99,,,-99.99,,2013-06-25 14:53:00,
2013-06-25 09:01:00,70.0,25.0,29.64,North,1,0.0,-999.0,18,-99.99,,,-99.99,,2013-06-25 15:01:00,
2013-06-25 09:11:00,70.0,25.0,29.64,North,1,0.0,-999.0,18,-99.99,,,-99.99,,2013-06-25 15:11:00,
2013-06-25 09:22:00,71.0,23.0,29.64,North,1,0.0,-999.0,16,-99.99,,,-99.99,,2013-06-25 15:22:00,
2013-06-25 09:32:00,73.0,23.0,29.63,NW,319,1.0,-999.0,15,-99.99,,,-99.99,,2013-06-25 15:32:00,
2013-06-25 09:44:00,73.0,23.0,29.63,NW,319,1.0,-999.0,15,-99.99,,,-99.99,,2013-06-25 15:44:00,
2013-06-25 09:53:00,74.0,22.0,29.63,WSW,251,2.0,-999.0,14,-99.99,,,-99.99,,2013-06-25 15:53:00,
2013-06-25 10:03:00,75.0,23.0,29.63,SSW,209,2.0,-999.0,14,-99.99,,,-99.99,,2013-06-25 16:03:00,
2013-06-25 10:12:00,75.0,23.0,29.63,SSW,209,2.0,-999.0,14,-99.99,,,-99.99,,2013-06-25 16:12:00,
2013-06-25 10:23:00,76.0,23.0,29.61,West,262,4.0,-999.0,14,-99.99,,,-99.99,,2013-06-25 16:23:00,
2013-06-25 10:35:00,76.0,22.0,29.61,WSW,255,7.0,-999.0,13,-99.99,,,-99.99,,2013-06-25 16:35:00,
2013-06-25 10:44:00,76.0,22.0,29.61,WSW,255,7.0,-999.0,13,-99.99,,,-99.99,,2013-06-25 16:44:00,
2013-06-25 10:52:00,77.0,22.0,29.64,WSW,250,7.0,-999.0,13,-99.99,,,-99.99,,2013-06-25 16:52:00,
2013-06-25 11:01:00,77.0,22.0,29.64,SSW,211,7.0,-999.0,13,-99.99,,,-99.99,,2013-06-25 17:01:00,
2013-06-25 11:11:00,77.0,22.0,29.64,SSW,211,7.0,-999.0,13,-99.99,,,-99.99,,2013-06-25 17:11:00,
2013-06-25 11:22:00,78.0,23.0,29.63,SW,220,7.0,-999.0,13,-99.99,,,-99.99,,2013-06-25 17:22:00,
2013-06-25 11:33:00,79.0,24.0,29.63,WSW,247,4.0,-999.0,13,-99.99,,,-99.99,,2013-06-25 17:33:00,
2013-06-25 11:44:00,79.0,24.0,29.63,WSW,247,4.0,-999.0,13,-99.99,,,-99.99,,2013-06-25 17:44:00,
2013-06-25 11:53:00,79.0,24.0,29.66,SSW,208,7.0,-999.0,13,-99.99,,,-99.99,,2013-06-25 17:53:00,
2013-06-25 12:02:00,80.0,25.0,29.67,SW,222,6.0,-999.0,13,-99.99,,,-99.99,,2013-06-25 18:02:00,
2013-06-25 12:12:00,80.0,25.0,29.67,SW,222,6.0,-999.0,13,-99.99,,,-99.99,,2013-06-25 18:12:00,
2013-06-25 12:22:00,80.0,27.0,29.66,West,265,6.0,-999.0,14,-99.99,,,-99.99,,2013-06-25 18:22:00,
2013-06-25 12:34:00,81.0,26.0,29.66,WNW,289,4.0,-999.0,13,-99.99,,,-99.99,,2013-06-25 18:34:00,
2013-06-25 12:44:00,81.0,26.0,29.66,WNW,289,4.0,-999.0,13,-99.99,,,-99.99,,2013-06-25 18:44:00,
2013-06-25 12:53:00,81.0,26.0,29.67,WSW,240,8.0,-999.0,13,-99.99,,,-99.99,,2013-06-25 18:53:00,
2013-06-25 13:01:00,81.0,24.0,29.65,WNW,297,6.0,-999.0,12,-99.99,,,-99.99,,2013-06-25 19:01:00,
2013-06-25 13:12:00,81.0,24.0,29.65,WNW,297,6.0,-999.0,12,-99.99,,,-99.99,,2013-06-25 19:12:00,
2013-06-25 13:22:00,81.0,26.0,29.65,West,280,10.0,-999.0,13,-99.99,,,-99.99,,2013-06-25 19:22:00,
2013-06-25 13:33:00,83.0,25.0,29.65,West,274,6.0,-999.0,12,-99.99,,,-99.99,,2013-06-25 19:33:00,
2013-06-25 13:44:00,83.0,25.0,29.65,West,274,6.0,-999.0,12,-99.99,,,-99.99,,2013-06-25 19:44:00,
2013-06-25 13:54:00,83.0,27.0,29.65,SW,230,10.0,-999.0,13,-99.99,,,-99.99,,2013-06-25 19:54:00,
2013-06-25 14:02:00,83.0,27.0,29.65,SW,230,10.0,-999.0,13,-99.99,,,-99.99,,2013-06-25 20:02:00,
2013-06-25 14:11:00,84.0,26.0,29.64,West,259,6.0,-999.0,12,-99.99,,,-99.99,,2013-06-25 20:11:00,
2013-06-25 14:22:00,84.0,28.0,29.64,SW,220,8.0,-999.0,13,-99.99,,,-99.99,,2013-06-25 20:22:00,
2013-06-25 14:33:00,84.0,28.0,29.64,SW,220,8.0,-999.0,13,-99.99,,,-99.99,,2013-06-25 20:33:00,
2013-06-25 14:42:00,85.0,27.0,29.62,NNW,341,6.0,-999.0,12,-99.99,,,-99.99,,2013-06-25 20:42:00,
2013-06-25 14:52:00,85.0,29.0,29.63,WNW,298,8.0,-999.0,13,-99.99,,,-99.99,,2013-06-25 20:52:00,
2013-06-25 15:01:00,85.0,29.0,29.63,WNW,298,8.0,-999.0,13,-99.99,,,-99.99,,2013-06-25 21:01:00,
2013-06-25 15:11:00,85.0,27.0,29.62,West,275,10.0,-999.0,12,-99.99,,,-99.99,,2013-06-25 21:11:00,
2013-06-25 15:22:00,85.0,27.0,29.62,WSW,257,9.0,-999.0,12,-99.99,,,-99.99,,2013-06-25 21:22:00,
2013-06-25 15:33:00,85.0,27.0,29.62,WSW,257,9.0,-999.0,12,-99.99,,,-99.99,,2013-06-25 21:33:00,
2013-06-25 15:43:00,86.0,27.0,29.61,WNW,282,8.0,-999.0,12,-99.99,,,-99.99,,2013-06-25 21:43:00,
2013-06-25 15:53:00,86.0,27.0,29.65,West,264,6.0,-999.0,12,-99.99,,,-99.99,,2013-06-25 21:53:00,
2013-06-25 16:01:00,86.0,27.0,29.65,West,264,6.0,-999.0,12,-99.99,,,-99.99,,2013-06-25 22:01:00,
2013-06-25 16:11:00,87.0,28.0,29.63,WSW,254,7.0,-999.0,12,-99.99,,,-99.99,,2013-06-25 22:11:00,
2013-06-25 16:22:00,87.0,28.0,29.63,West,270,4.0,-999.0,12,-99.99,,,-99.99,,2013-06-25 22:22:00,
2013-06-25 16:33:00,87.0,28.0,29.63,West,270,4.0,-999.0,12,-99.99,,,-99.99,,2013-06-25 22:33:00,
2013-06-25 16:42:00,88.0,29.0,29.63,WNW,293,5.0,-999.0,12,-99.99,,,-99.99,,2013-06-25 22:42:00,
2013-06-25 16:52:00,88.0,27.0,29.63,WNW,294,9.0,-999.0,11,-99.99,,,-99.99,,2013-06-25 22:52:00,
2013-06-25 17:01:00,88.0,27.0,29.63,WNW,294,9.0,-999.0,11,-99.99,,,-99.99,,2013-06-25 23:01:00,
2013-06-25 17:11:00,87.0,28.0,29.63,SSW,200,4.0,-999.0,12,-99.99,,,-99.99,,2013-06-25 23:11:00,
2013-06-25 17:22:00,87.0,28.0,29.62,WSW,258,9.0,-999.0,12,-99.99,,,-99.99,,2013-06-25 23:22:00,
2013-06-25 17:34:00,87.0,28.0,29.62,WSW,258,9.0,-999.0,12,-99.99,,,-99.99,,2013-06-25 23:34:00,
2013-06-25 17:43:00,88.0,29.0,29.62,WSW,243,4.0,-999.0,12,-99.99,,,-99.99,,2013-06-25 23:43:00,
2013-06-25 17:52:00,88.0,27.0,29.63,WSW,240,7.0,-999.0,11,-99.99,,,-99.99,,2013-06-25 23:52:00,
2013-06-25 18:02:00,88.0,27.0,29.63,WSW,240,7.0,-999.0,11,-99.99,,,-99.99,,2013-06-26 00:02:00,
2013-06-25 18:11:00,87.0,26.0,29.63,WSW,254,7.0,-999.0,11,-99.99,,,-99.99,,2013-06-26 00:11:00,
2013-06-25 18:22:00,87.0,28.0,29.62,West,271,8.0,-999.0,12,-99.99,,,-99.99,,2013-06-26 00:22:00,
2013-06-25 18:33:00,87.0,28.0,29.62,West,271,8.0,-999.0,12,-99.99,,,-99.99,,2013-06-26 00:33:00,
2013-06-25 18:42:00,88.0,27.0,29.62,NW,314,3.0,-999.0,11,-99.99,,,-99.99,,2013-06-26 00:42:00,
2013-06-25 18:52:00,88.0,29.0,29.58,West,269,3.0,-999.0,12,-99.99,,,-99.99,,2013-06-26 00:52:00,
2013-06-25 19:01:00,88.0,29.0,29.58,West,269,3.0,-999.0,12,-99.99,,,-99.99,,2013-06-26 01:01:00,
2013-06-25 19:11:00,87.0,26.0,29.58,WSW,239,4.0,-999.0,11,-99.99,,,-99.99,,2013-06-26 01:11:00,
2013-06-25 19:22:00,87.0,26.0,29.58,West,278,2.0,-999.0,11,-99.99,,,-99.99,,2013-06-26 01:22:00,
2013-06-25 19:33:00,87.0,26.0,29.58,West,278,2.0,-999.0,11,-99.99,,,-99.99,,2013-06-26 01:33:00,
2013-06-25 19:43:00,87.0,26.0,29.58,West,260,1.0,-999.0,11,-99.99,,,-99.99,,2013-06-26 01:43:00,
2013-06-25 19:52:00,86.0,25.0,29.53,WSW,255,5.0,-999.0,11,-99.99,,,-99.99,,2013-06-26 01:52:00,
2013-06-25 20:02:00,86.0,25.0,29.53,WSW,255,5.0,-999.0,11,-99.99,,,-99.99,,2013-06-26 02:02:00,
2013-06-25 20:11:00,85.0,27.0,29.53,WNW,282,5.0,-999.0,12,-99.99,,,-99.99,,2013-06-26 02:11:00,
2013-06-25 20:22:00,85.0,27.0,29.53,WNW,303,1.0,-999.0,12,-99.99,,,-99.99,,2013-06-26 02:22:00,
2013-06-25 20:34:00,85.0,27.0,29.53,WNW,303,1.0,-999.0,12,-99.99,,,-99.99,,2013-06-26 02:34:00,
2013-06-25 20:43:00,83.0,25.0,29.55,WNW,303,1.0,-999.0,12,-99.99,,,-99.99,,2013-06-26 02:43:00,
2013-06-25 20:53:00,80.0,27.0,29.53,WNW,303,0.0,-999.0,14,-99.99,,,-99.99,,2013-06-26 02:53:00,
2013-06-25 21:02:00,80.0,27.0,29.53,WNW,303,0.0,-999.0,14,-99.99,,,-99.99,,2013-06-26 03:02:00,
2013-06-25 21:11:00,77.0,26.0,29.54,WNW,303,0.0,-999.0,15,-99.99,,,-99.99,,2013-06-26 03:11:00,
2013-06-25 21:33:00,73.0,27.0,29.57,WNW,303,0.0,-999.0,18,-99.99,,,-99.99,,2013-06-26 03:33:00,
2013-06-25 21:43:00,72.0,26.0,29.58,WNW,303,0.0,-999.0,18,-99.99,,,-99.99,,2013-06-26 03:43:00,
2013-06-25 21:52:00,72.0,27.0,29.56,NW,304,0.0,-999.0,19,-99.99,,,-99.99,,2013-06-26 03:52:00,
2013-06-25 22:01:00,72.0,27.0,29.56,NW,304,0.0,-999.0,19,-99.99,,,-99.99,,2013-06-26 04:01:00,
2013-06-25 22:12:00,72.0,27.0,29.57,NNE,32,3.0,-999.0,19,-99.99,,,-99.99,,2013-06-26 04:12:00,
2013-06-25 22:22:00,72.0,27.0,29.57,NNE,32,3.0,-999.0,19,-99.99,,,-99.99,,2013-06-26 04:22:00,
2013-06-25 22:33:00,71.0,27.0,29.59,ENE,64,3.0,-999.0,19,-99.99,,,-99.99,,2013-06-26 04:33:00,
2013-06-25 22:43:00,71.0,27.0,29.59,ENE,64,3.0,-999.0,19,-99.99,,,-99.99,,2013-06-26 04:43:00,
2013-06-25 22:53:00,69.0,26.0,29.59,ENE,64,2.0,-999.0,20,-99.99,,,-99.99,,2013-06-26 04:53:00,
2013-06-25 23:02:00,69.0,26.0,29.59,ENE,64,2.0,-999.0,20,-99.99,,,-99.99,,2013-06-26 05:02:00,
2013-06-25 23:11:00,68.0,27.0,29.60,ENE,65,1.0,-999.0,21,-99.99,,,-99.99,,2013-06-26 05:11:00,
2013-06-25 23:22:00,67.0,28.0,29.60,ENE,67,3.0,-999.0,23,-99.99,,,-99.99,,2013-06-26 05:22:00,
2013-06-25 23:34:00,67.0,28.0,29.60,ENE,67,3.0,-999.0,23,-99.99,,,-99.99,,2013-06-26 05:34:00,
2013-06-25 23:43:00,66.0,27.0,29.61,ENE,67,1.0,-999.0,23,-99.99,,,-99.99,,2013-06-26 05:43:00,
2013-06-25 23:52:00,65.0,27.0,29.61,ENE,67,1.0,-999.0,24,-99.99,,,-99.99,,2013-06-26 05:52:00,